Brookings, OR

4:15 PM PDT on April 24, 2017 (GMT -0700)
Brookings State

Weather History for KBOK - December, 2012

Change the Weather History Date:

Friday, December 21, 2012

  Actual Average Record
Temperature  
Mean Temperature 44 °F -  
Max Temperature 47 °F 52 °F 68 °F (1940)
Min Temperature 42 °F 39 °F 19 °F (1990)
Degree Days  
Heating Degree Days 21    
Moisture  
Dew Point 45 °F    
Average Humidity 99    
Maximum Humidity 100    
Minimum Humidity 86    
Precipitation  
Precipitation 0.06 in - - ()
Sea Level Pressure  
Sea Level Pressure 29.74 in    
Wind  
Wind Speed 9 mph (SSE)    
Max Wind Speed 14 mph    
Max Gust Speed 18 mph    
Visibility 4 miles    
Events Rain , Thunderstorm    
Averages and records for this station are not official NWS values.
T = Trace of Precipitation, MM = Missing Value Source: NWS Daily Summary

Daily Weather History Graph

Daily Weather History Graph

Search for Another Location

Airport or City:

Trip Planner

Search our weather history database for the weather conditions in past years. The results will help you decide how hot, cold, wet, or windy it might be!

Date:

Astronomy

Dec. 21, 2012 Rise Set
Actual Time 7:42 AM PST 4:48 PM PST
Civil Twilight 7:10 AM PST 5:20 PM PST
Nautical Twilight 6:35 AM PST 5:56 PM PST
Astronomical Twilight 6:01 AM PST 6:30 PM PST
Moon 12:42 PM PST (12/21) 1:30 AM PST (12/21)
Length of Visible Light 10h 10m
Length of Day
9h 06m
Waxing Gibbous, 66% of the Moon is Illuminated
Dec 21
Waxing Gibbous
Dec 28
Full
Jan 4
Last Quarter
Jan 11
New
Jan 18
First Quarter

Hourly Weather History & Observations

Time (PST) Temp. Windchill Dew Point Humidity Pressure Visibility Wind Dir Wind Speed Gust Speed Precip Events Conditions
12:40 AM 44.6 °F 39.2 °F 44.6 °F 100% 29.77 in 3.0 mi SSE 10.4 mph - 0.01 in Rain Light Rain
12:47 AM 44.6 °F 38.4 °F 44.6 °F 100% 29.77 in 2.0 mi SSE 12.7 mph - 0.03 in Rain Rain
12:56 AM 45.0 °F - 45.0 °F 100% - - North - - N/A   Unknown
1:56 AM - - - N/A% - - North - - N/A   Unknown
2:05 AM 44.6 °F 39.7 °F 44.6 °F 100% 29.76 in - WNW 9.2 mph - N/A Rain , Thunderstorm Heavy Thunderstorms and Rain
2:12 AM 42.8 °F 41.1 °F 42.8 °F 100% 29.76 in 1.5 mi Variable 3.5 mph - N/A Rain , Thunderstorm Heavy Thunderstorms and Rain
2:17 AM 42.8 °F 38.6 °F 42.8 °F 100% 29.76 in 1.2 mi Variable 6.9 mph - N/A Rain Heavy Rain
2:29 AM 44.6 °F 42.2 °F 44.6 °F 100% 29.76 in 1.8 mi Variable 4.6 mph - N/A Rain Rain
2:33 AM 44.6 °F 39.2 °F 44.6 °F 100% 29.76 in 3.0 mi SSE 10.4 mph - N/A Rain Light Rain
2:43 AM 44.6 °F - 44.6 °F 100% - - North - - N/A   Unknown
2:56 AM 45.9 °F 39.7 °F 45.9 °F 100% 29.76 in 4.0 mi SSE 13.8 mph 18.4 mph N/A Rain Light Rain
3:23 AM 46.4 °F 40.4 °F 46.4 °F 100% 29.75 in 4.0 mi South 13.8 mph - 0.02 in Rain Light Rain
3:36 AM 46.4 °F 41.1 °F 46.4 °F 100% 29.76 in 1.8 mi South 11.5 mph - 0.07 in Rain Heavy Rain
3:44 AM 46.4 °F 42.9 °F 46.4 °F 100% 29.77 in 1.5 mi South 6.9 mph - 0.08 in Rain Rain
3:56 AM 45.9 °F - 45.9 °F 100% - - North - - N/A   Unknown
4:40 AM 44.6 °F 39.2 °F 44.6 °F 100% 29.77 in 4.0 mi SSE 10.4 mph - N/A Rain Light Rain
4:47 AM 44.6 °F 39.2 °F 44.6 °F 100% 29.77 in 2.0 mi SSE 10.4 mph - N/A Rain Light Rain
4:56 AM 45.0 °F 40.1 °F 45.0 °F 100% 29.78 in 5.0 mi SSE 9.2 mph - N/A Rain Light Rain
5:16 AM 44.6 °F 40.2 °F 44.6 °F 100% 29.76 in 6.0 mi SE 8.1 mph - 0.00 in Rain Light Rain
5:43 AM 44.6 °F 42.2 °F 44.6 °F 100% 29.75 in 3.0 mi Variable 4.6 mph - 0.02 in Rain Light Rain
5:56 AM 45.0 °F 39.3 °F 45.0 °F 100% 29.77 in 5.0 mi SSE 11.5 mph - 0.02 in Rain Light Rain
6:17 AM 44.6 °F 38.4 °F 44.6 °F 100% 29.76 in 2.5 mi SSE 12.7 mph - 0.02 in Rain Rain
6:23 AM 44.6 °F 38.8 °F 44.6 °F 100% 29.77 in 1.5 mi South 11.5 mph - 0.05 in Rain Heavy Rain
6:31 AM 44.6 °F - 44.6 °F 100% - 1.2 mi North - - N/A Rain Heavy Rain
6:38 AM 44.6 °F 42.2 °F 44.6 °F 100% 29.77 in - Variable 4.6 mph - N/A Rain Light Rain
6:56 AM 43.9 °F 39.3 °F 43.9 °F 100% 29.78 in 5.0 mi SE 8.1 mph - N/A   Mist
7:13 AM 44.6 °F 41.4 °F 44.6 °F 100% 29.77 in 7.0 mi Variable 5.8 mph - N/A   Overcast
7:56 AM 45.0 °F 41.8 °F 45.0 °F 100% 29.77 in 9.0 mi ESE 5.8 mph - N/A   Overcast
8:11 AM 44.6 °F 43.1 °F 44.6 °F 100% 29.76 in - Variable 3.5 mph - N/A   Unknown
8:45 AM 44.6 °F 40.7 °F 44.6 °F 100% 29.76 in 8.0 mi Variable 6.9 mph - N/A   Overcast
8:56 AM 45.0 °F 40.6 °F 45.0 °F 100% 29.78 in 8.0 mi ESE 8.1 mph - N/A   Overcast
9:26 AM 44.6 °F 40.2 °F 44.6 °F 100% 29.76 in 2.5 mi SE 8.1 mph - 0.01 in Rain Light Rain
9:34 AM 44.6 °F 40.7 °F 44.6 °F 100% 29.76 in 4.0 mi Variable 6.9 mph - 0.01 in Rain Light Rain
9:56 AM 45.0 °F 41.2 °F 45.0 °F 100% 29.76 in 8.0 mi Variable 6.9 mph - 0.02 in   Overcast
10:56 AM 45.9 °F 42.3 °F 45.0 °F 97% 29.76 in 8.0 mi Variable 6.9 mph - 0.00 in Rain Light Rain
11:30 AM 44.6 °F - 44.6 °F 100% 29.73 in 5.0 mi Calm Calm - 0.00 in Rain Light Rain
11:56 AM 45.0 °F 40.1 °F 45.0 °F 100% 29.75 in 3.0 mi SSE 9.2 mph - 0.02 in Rain Light Rain
12:05 PM 44.6 °F 40.7 °F 44.6 °F 100% 29.74 in 2.0 mi Variable 6.9 mph - 0.01 in Rain Light Rain
12:09 PM 44.6 °F 39.7 °F 44.6 °F 100% 29.74 in 2.0 mi SSE 9.2 mph - 0.02 in Rain Rain
12:21 PM 44.6 °F 40.2 °F 44.6 °F 100% 29.75 in 1.8 mi South 8.1 mph - 0.07 in Rain Rain
12:29 PM 44.6 °F - 44.6 °F 100% - 1.5 mi North - - N/A   Mist
12:37 PM 44.6 °F - 44.6 °F 100% - - North - - N/A   Unknown
12:56 PM 43.9 °F - 43.9 °F 100% - - North - - N/A   Unknown
1:56 PM - - - N/A% - - North - - N/A   Unknown
2:56 PM 43.9 °F 40.5 °F 43.9 °F 100% 29.70 in 3.0 mi ESE 5.8 mph - N/A Rain Light Rain
3:09 PM 44.6 °F 40.2 °F 44.6 °F 100% 29.70 in 2.0 mi SSE 8.1 mph - 0.01 in Rain Light Rain
3:20 PM 44.6 °F 40.2 °F 44.6 °F 100% 29.69 in 5.0 mi SE 8.1 mph - 0.01 in   Overcast
3:48 PM 46.4 °F - 46.4 °F 100% - - North - - N/A   Unknown
3:56 PM 45.9 °F - 45.9 °F 100% - - North - - N/A   Unknown
4:56 PM 45.0 °F 40.1 °F 45.0 °F 100% 29.71 in 5.0 mi SE 9.2 mph - N/A   Mist
5:23 PM 44.6 °F 39.2 °F 44.6 °F 100% 29.69 in 5.0 mi SE 10.4 mph - 0.00 in Rain Light Rain
5:36 PM 44.6 °F - 44.6 °F 100% - - North - - N/A   Unknown
5:56 PM - - - N/A% - - North - - N/A   Unknown
6:39 PM 44.6 °F 40.2 °F 44.6 °F 100% 29.69 in 10.0 mi SE 8.1 mph - N/A   Overcast
6:56 PM 45.9 °F 40.4 °F 45.0 °F 97% 29.70 in 8.0 mi SE 11.5 mph - N/A   Overcast
7:32 PM 46.4 °F 41.1 °F 44.6 °F 93% 29.66 in 8.0 mi SE 11.5 mph - 0.00 in   Overcast
7:56 PM 46.9 °F - 43.9 °F 89% 29.65 in 9.0 mi SE 11.5 mph - N/A   Unknown
8:25 PM 46.4 °F 40.4 °F 44.6 °F 93% 29.64 in 9.0 mi SE 13.8 mph - N/A   Mostly Cloudy
8:56 PM 47.8 °F - 43.9 °F 86% - - North - - N/A   Unknown
9:56 PM - - - N/A% - - North - - N/A   Unknown
10:56 PM - - - N/A% - - North - - N/A   Unknown
11:56 PM - - - N/A% - - North - - N/A   Unknown